| Date | Time | Temp. (oF) | Dew Point (oF) | Rel. Hum. (%) | Press. (in.) | Wind Dir. | Wind Speed (mph) | Hourly Rainfall (in.) |
|
|---|---|---|---|---|---|---|---|---|---|
| 1 | 05/03 | 00:00 | 52 | 51 | 100 | 30.15 | S | 4 | 0.00 |
| 2 | 05/02 | 23:00 | 52 | 51 | 100 | 30.16 | E | 1 | 0.00 |
| 3 | 05/02 | 22:00 | 53 | 53 | 100 | 30.16 | SSW | 2 | 0.00 |
| 4 | 05/02 | 21:00 | 54 | 54 | 100 | 30.13 | SSE | 3 | 0.00 |
| 5 | 05/02 | 20:00 | 55 | 54 | 100 | 30.14 | SE | 2 | 0.00 |
| 6 | 05/02 | 19:00 | 56 | 55 | 98 | 30.12 | SE | 4 | 0.00 |
| 7 | 05/02 | 18:00 | 58 | 56 | 96 | 30.12 | SSE | 7 | 0.00 |
| 8 | 05/02 | 17:00 | 58 | 56 | 96 | 30.12 | SSW | 3 | 0.00 |
| 9 | 05/02 | 16:00 | 58 | 56 | 94 | 30.12 | SSW | 3 | 0.00 |
| 10 | 05/02 | 15:00 | 58 | 56 | 95 | 30.12 | SE | 4 | 0.00 |
| 11 | 05/02 | 14:00 | 57 | 56 | 99 | 30.13 | SSE | 6 | 0.00 |
| 12 | 05/02 | 13:00 | 56 | 55 | 100 | 30.13 | E | 2 | 0.00 |
| 13 | 05/02 | 12:00 | 56 | 55 | 100 | 30.13 | ESE | 7 | 0.00 |
| 14 | 05/02 | 11:00 | 56 | 55 | 100 | 30.12 | SE | 4 | 0.00 |
| 15 | 05/02 | 10:00 | 56 | 55 | 100 | 30.12 | S | 4 | 0.00 |
| 16 | 05/02 | 09:00 | 55 | 54 | 100 | 30.11 | SE | 12 | 0.00 |
| 17 | 05/02 | 08:00 | 56 | 55 | 100 | 30.09 | SSW | 3 | 0.00 |
| 18 | 05/02 | 07:00 | 57 | 57 | 100 | 30.08 | ESE | 4 | 0.01 |
| 19 | 05/02 | 06:00 | 59 | 59 | 100 | 30.06 | S | 1 | 0.03 |
| 20 | 05/02 | 05:00 | 59 | 59 | 100 | 30.06 | SE | 0 | 0.02 |
| 21 | 05/02 | 04:00 | 59 | 59 | 100 | 30.02 | SSE | 2 | 0.00 |
| 22 | 05/02 | 03:00 | 55 | 54 | 100 | 30.02 | E | 0 | 0.00 |
| 23 | 05/02 | 02:00 | 55 | 54 | 100 | 30.02 | NE | 0 | 0.00 |
| 24 | 05/02 | 01:00 | 57 | 57 | 100 | 30.02 | NNE | 0 | 0.00 |